Wind_Speed
44 44 44 44 44 44 44 45 46 46 47 48 49 50 51 52 53 54 54 55 56 57 58 59 59 60 61 62 63 64 64 65 66 65 65 64 63 62 61 60 59 58 57 57 58 58 59 59 59 59 60 60 61 62 63 64 65 65 66 66 65 66 67 67 69 65 60 62 66 66 66 68 69 69 71 71 71 72 72 73 74 74 75 75 75
44 44 44 44 44 45 46 47 48 49 50 51 52 53 54 54 55 56 56 57 58 59 59 60 61 62 62 63 64 65 65 66 65 65 64 62 61 60 60 59 58 58 58 58 59 59 59 59 59 59 60 61 62 63 64 65 66 66 66 67 67 67 69 69 71 70 65 64 67 69 69 70 71 72 73 73 74 75 76 77 78 78 79 79 79
43 44 44 45 46 47 49 50 51 52 52 53 54 54 55 56 56 57 58 59 60 60 61 62 62 63 63 64 65 65 65 64 64 63 61 60 60 59 59 59 59 59 59 59 58 58 58 58 59 60 61 62 62 63 65 65 66 67 67 68 69 69 71 72 73 73 71 68 69 72 73 74 74 75 75 76 77 78 79 80 81 81 82 82 82
45 46 46 48 49 50 51 52 52 53 53 54 55 56 56 57 58 59 60 61 61 62 62 63 64 64 65 65 65 64 63 62 62 61 60 59 59 59 59 59 59 58 58 58 58 58 59 59 60 62 63 63 63 65 66 67 68 69 69 70 71 71 73 75 76 76 76 74 72 75 77 78 78 79 79 80 81 82 83 83 83 83 83 83 82
47 48 49 49 50 51 52 53 53 54 55 56 57 57 58 59 60 61 62 62 63 63 64 64 65 65 65 64 63 62 61 60 60 59 59 58 58 58 59 58 58 57 57 57 58 59 60 61 62 63 64 65 65 66 68 69 70 71 71 72 73 74 75 77 79 80 80 79 77 78 80 81 82 82 83 83 84 84 84 84 83 82 82 82 81
49 50 51 51 52 53 54 55 56 56 57 58 59 59 60 61 62 62 63 63 63 64 64 65 65 64 64 62 61 61 60 59 59 59 58 58 58 58 58 58 57 57 58 59 60 61 62 62 63 64 66 66 67 68 70 71 72 73 74 75 76 77 78 79 81 82 83 83 82 81 82 83 84 83 83 84 84 83 83 82 82 81 81 81 80
52 53 54 54 55 56 57 58 58 59 59 60 60 61 62 62 62 62 63 63 64 65 65 65 64 62 61 60 60 59 59 59 59 59 59 59 59 58 58 58 59 59 60 61 62 63 64 64 65 67 68 69 70 72 73 74 75 75 76 78 78 79 80 81 82 84 84 84 84 83 83 84 84 83 83 82 82 81 80 80 80 79 79 79 78
55 56 56 57 58 59 60 60 61 61 62 62 63 63 63 63 63 63 64 65 65 65 64 63 61 60 60 59 59 59 59 59 59 59 59 59 59 59 59 60 61 62 63 63 64 65 66 67 69 70 72 73 74 75 76 77 77 77 78 79 80 80 81 82 83 84 84 84 84 84 83 83 83 82 81 80 79 79 78 78 78 77 77 77 77
57 59 59 60 61 61 62 63 63 64 64 64 64 64 64 64 64 65 66 66 65 64 62 61 60 60 59 59 59 59 59 60 60 60 60 60 60 60 61 62 64 65 65 66 67 68 70 71 73 74 75 76 77 77 78 79 80 80 80 81 82 82 82 83 83 83 84 84 83 83 82 82 81 80 79 78 78 77 77 77 77 76 76 76 75
60 61 62 62 63 64 64 65 65 65 65 65 65 64 64 65 66 66 66 65 63 62 61 61 60 60 60 59 59 60 60 60 60 61 62 62 62 63 64 66 67 68 69 69 71 72 74 76 77 78 79 79 80 81 81 82 82 82 82 83 83 84 84 84 83 83 84 83 82 81 81 80 79 79 78 77 77 77 77 77 77 76 76 75 74
62 63 64 64 65 66 66 66 66 66 65 65 65 65 66 66 65 65 63 62 62 62 62 62 61 61 60 59 59 60 61 62 62 63 65 66 67 68 69 70 71 72 73 74 75 77 78 79 80 81 82 83 84 84 84 83 83 83 83 84 84 84 84 84 83 83 83 83 81 81 81 80 79 79 79 78 78 78 78 78 77 76 76 75 74
65 66 67 67 67 67 67 66 66 66 66 66 66 66 66 65 64 63 62 62 62 63 63 62 61 60 59 60 60 62 64 66 67 69 70 72 73 73 74 74 75 76 78 79 80 81 82 83 84 85 86 87 87 86 86 85 84 84 84 84 84 84 84 83 83 83 83 83 82 81 81 81 81 81 81 80 80 80 80 79 78 78 77 76 75
67 68 68 68 68 67 67 66 67 67 67 67 67 66 65 64 63 63 63 64 64 64 63 62 61 61 61 62 64 65 68 70 72 74 75 76 77 78 78 79 80 81 82 83 84 85 86 87 88 89 89 89 89 88 87 87 86 85 85 85 84 83 83 83 83 83 84 84 84 83 82 83 83 82 82 82 82 81 81 80 80 80 79 78 76
69 69 69 68 68 67 68 68 69 69 69 68 66 65 64 64 65 65 65 65 65 64 63 63 63 64 66 68 69 70 72 74 75 77 78 80 82 83 83 84 84 85 86 87 88 89 90 91 92 92 91 90 89 88 88 88 88 88 87 86 85 84 84 84 85 85 86 86 86 85 84 84 85 84 83 83 82 81 81 81 81 81 80 79 78
70 69 69 68 68 69 70 70 70 69 68 67 66 66 66 66 66 66 66 66 66 66 66 66 67 69 71 73 74 75 76 78 79 81 83 84 86 87 88 88 88 89 90 91 92 92 93 94 93 93 92 91 90 89 89 90 90 90 89 88 87 86 86 86 86 87 88 88 89 88 87 86 86 85 85 84 83 82 82 82 81 81 80 79 78
70 69 69 70 70 70 70 69 68 67 67 67 67 68 68 68 68 68 68 68 68 69 69 71 72 74 76 78 79 80 80 82 84 86 87 89 90 91 92 92 93 93 93 94 95 95 95 94 94 93 92 91 90 90 90 91 92 91 90 89 88 88 87 87 87 88 88 89 90 89 88 86 86 86 85 84 84 83 83 82 81 80 79 78 78
70 70 71 71 70 69 68 67 67 67 67 68 69 69 69 70 70 70 70 71 72 73 74 75 77 79 81 82 83 84 84 86 88 90 91 92 94 95 96 96 96 96 96 96 96 96 96 95 94 94 93 92 92 92 92 93 93 93 92 91 90 89 88 87 88 88 88 89 89 88 88 86 86 86 85 84 83 83 83 82 80 79 79 78 77
70 70 69 69 68 67 67 67 67 68 69 69 70 70 71 72 72 73 74 75 76 78 79 80 82 83 85 86 87 88 89 90 92 93 94 96 97 98 99 99 99 99 98 98 98 98 97 96 95 95 94 94 93 93 94 95 95 95 93 93 92 90 88 88 88 88 88 87 87 86 86 85 84 84 83 82 82 82 81 80 79 79 79 78 77
68 67 67 66 67 67 68 68 69 69 70 71 72 73 74 75 76 78 79 80 81 82 83 84 85 86 88 90 91 92 93 94 95 96 97 98 99 100 101 102 101 101 101 100 100 100 99 98 97 97 97 97 96 96 96 97 97 97 96 95 94 91 89 89 89 88 87 86 85 84 84 83 82 82 81 80 79 79 79 78 78 78 78 78 78
66 66 66 67 68 68 69 70 70 71 72 74 75 77 78 79 81 82 83 84 85 86 88 89 90 90 92 93 95 96 97 98 98 99 100 100 101 102 103 103 103 103 103 103 103 102 101 100 99 99 100 100 99 98 98 98 99 99 98 97 95 93 91 91 90 88 87 85 83 82 81 80 80 80 79 78 77 76 76 77 77 77 78 78 77
66 67 68 68 69 70 71 73 74 75 77 78 79 81 82 84 85 86 87 88 89 90 92 93 94 95 95 97 98 99 100 101 101 101 102 102 102 103 104 105 105 106 106 106 105 105 104 103 102 102 102 102 102 101 101 100 100 100 99 98 97 94 93 91 89 88 86 84 82 81 80 78 78 77 77 77 76 75 75 75 75 75 75 74 71
68 69 70 71 72 74 75 77 79 80 81 82 83 85 86 87 88 90 91 92 93 94 95 97 98 99 99 100 100 101 101 102 102 102 102 103 103 104 105 105 106 108 108 108 107 106 105 104 103 103 103 103 103 102 102 101 101 100 100 99 97 95 94 92 90 88 86 84 82 80 79 77 76 75 74 74 74 73 73 73 73 72 71 70 68
70 71 73 74 76 78 80 81 82 83 84 85 86 87 89 90 91 92 93 94 95 96 97 99 100 101 101 101 101 101 101 101 101 101 102 103 104 104 105 106 107 108 109 109 108 107 106 105 104 103 103 103 103 103 102 101 100 99 99 98 97 95 93 92 90 87 85 83 81 79 77 75 73 72 71 71 71 71 70 71 70 68 66 65 65
73 75 77 78 80 81 83 84 85 86 87 88 89 89 90 91 92 93 94 96 97 98 98 99 100 100 101 101 101 101 101 101 101 101 102 103 104 105 106 106 106 107 108 108 108 108 108 107 106 106 106 105 105 104 102 100 99 98 97 95 94 93 91 89 87 85 83 81 79 77 74 72 69 67 67 68 68 68 68 67 67 64 61 60 61
77 78 80 82 83 84 85 86 87 88 89 89 90 90 91 92 93 94 95 96 96 98 98 99 100 101 101 102 102 103 103 103 103 102 103 104 105 105 105 106 106 107 109 110 111 112 112 111 110 109 108 106 105 102 100 98 96 94 93 92 90 89 87 84 82 80 78 77 75 73 70 67 64 63 64 65 66 65 65 64 64 62 58 55 57
80 81 82 83 84 85 86 86 87 88 89 90 90 91 92 92 92 93 93 94 96 97 98 99 100 101 102 103 104 104 104 104 103 103 103 104 105 106 107 108 109 111 112 113 114 114 113 111 109 107 104 102 100 97 95 93 91 89 88 86 85 84 82 79 77 76 74 72 71 69 66 62 60 60 62 63 63 63 62 62 61 57 51 48 52
81 82 83 84 85 85 86 87 87 88 88 89 89 89 89 90 91 92 93 95 96 97 99 100 101 102 103 104 104 105 104 104 103 103 104 105 107 109 110 112 113 114 115 114 114 112 110 108 104 102 99 96 94 92 90 88 86 84 83 81 80 78 77 75 73 71 70 68 67 65 61 58 57 58 60 60 60 60 61 59 58 54 47 46 52
82 83 84 85 85 86 86 86 86 86 86 86 87 87 88 90 91 92 93 95 97 98 99 100 101 103 104 104 105 105 105 105 105 106 108 109 111 113 114 115 115 114 113 112 111 109 106 103 100 97 94 92 90 87 86 84 82 80 78 77 76 74 73 71 69 68 66 64 63 60 58 56 56 57 58 58 58 58 58 57 56 52 48 48 50
83 83 83 83 84 84 84 84 84 85 86 86 87 88 89 91 92 92 93 95 98 99 99 100 100 102 103 105 106 108 109 108 108 109 111 112 113 115 115 115 113 112 110 109 108 107 104 101 98 95 92 89 87 85 83 81 79 76 75 74 72 71 70 68 66 65 63 61 59 57 55 55 55 56 56 56 56 56 56 55 54 51 47 44 42
81 81 81 82 82 83 83 84 85 86 87 88 88 89 90 91 93 94 94 94 95 96 98 99 101 103 105 107 109 111 112 112 112 112 112 112 112 112 112 112 111 110 108 107 108 107 104 101 98 95 92 90 87 84 82 80 77 74 72 71 69 68 68 66 65 63 61 58 56 55 54 54 54 55 54 54 54 54 54 53 51 48 44 40 38
80 80 81 82 82 83 84 85 86 86 88 89 90 91 91 91 92 92 93 93 93 95 97 100 103 106 108 109 110 111 112 113 113 113 112 111 110 110 109 110 110 109 108 108 108 106 103 101 99 96 93 91 88 85 82 78 75 72 70 68 67 66 65 64 63 61 58 56 54 53 52 53 53 53 53 52 52 52 51 49 47 43 39 37 38
80 80 81 82 83 83 84 85 87 88 89 91 92 92 92 91 90 89 91 94 96 97 99 101 103 105 107 109 110 111 111 111 112 112 112 112 111 110 109 108 108 107 107 108 107 105 103 101 99 96 94 91 87 84 80 76 72 70 68 66 64 64 64 63 61 59 56 53 52 51 51 51 51 51 51 50 49 48 47 44 41 38 36 38 41
79 80 81 82 83 85 86 88 89 90 90 91 91 91 91 92 93 93 94 95 97 99 100 101 102 104 105 107 109 111 111 112 111 111 111 111 111 111 110 108 106 106 106 107 106 104 101 99 96 93 90 87 84 80 77 72 69 67 65 63 62 62 62 61 59 56 53 50 50 50 50 50 50 49 48 47 46 44 42 39 37 36 38 41 43
80 82 83 84 86 87 88 88 88 88 88 89 90 91 92 94 96 97 98 98 99 99 99 100 101 103 105 106 108 109 111 111 112 111 110 109 109 109 108 107 105 103 103 102 100 98 94 90 87 85 82 80 77 75 72 68 65 64 62 61 61 61 60 58 55 53 50 48 48 48 48 48 47 46 44 43 41 39 37 36 37 39 41 42 42
83 84 85 86 86 87 86 86 86 87 88 89 91 92 93 94 95 96 97 98 99 99 100 100 101 103 105 107 108 108 108 109 110 109 108 107 106 105 105 104 101 98 95 92 89 85 82 79 76 74 72 71 69 68 66 64 62 61 60 59 59 59 57 54 51 49 48 47 46 46 46 46 44 42 40 38 36 35 36 37 39 40 40 39 38
84 85 85 84 84 84 84 85 86 87 88 90 90 91 91 92 92 93 94 95 97 98 99 100 101 102 104 106 107 107 106 106 106 105 104 102 100 98 96 93 90 87 83 79 76 73 71 69 67 65 64 63 61 61 60 60 59 58 57 57 57 55 53 50 47 45 45 45 44 44 44 43 40 37 35 34 35 37 39 40 40 38 37 37 36
82 82 82 82 82 83 84 85 86 87 87 88 88 88 88 88 89 90 91 93 95 97 98 100 101 102 103 104 105 105 104 102 100 98 95 93 90 87 84 81 78 75 72 69 66 65 64 62 61 60 58 57 56 55 55 56 56 55 54 53 52 51 48 46 43 43 43 43 42 42 41 39 35 33 33 35 38 39 40 39 37 36 35 35 34
80 80 81 82 82 83 84 84 85 85 85 85 85 85 86 86 87 89 90 92 94 96 97 99 101 103 103 104 104 103 101 97 93 88 84 82 80 77 75 72 69 66 64 62 60 60 59 57 56 55 54 53 52 51 51 52 52 50 49 48 47 46 44 42 40 41 42 42 40 39 37 34 32 33 35 38 39 38 36 34 33 33 33 33 33
80 80 81 81 81 82 82 82 82 82 82 82 83 83 84 85 86 88 89 91 93 95 97 99 100 102 103 103 102 100 95 90 85 80 77 74 73 71 69 66 64 61 59 57 56 55 54 53 53 52 51 50 49 49 48 48 48 46 44 44 43 42 40 39 39 40 41 40 38 36 33 31 32 34 37 37 35 32 30 30 30 31 31 32 32
79 79 79 78 78 78 78 78 78 79 79 80 81 82 84 85 86 87 89 91 93 95 96 98 100 101 102 100 97 93 87 82 78 75 73 70 68 66 64 62 60 57 55 53 52 51 50 50 49 49 49 48 47 47 46 46 44 43 42 41 40 39 38 38 39 39 38 36 34 31 30 31 33 35 35 33 30 28 27 28 29 30 30 31 31
76 75 75 75 74 74 74 74 75 76 78 79 81 82 83 84 85 87 89 91 93 95 97 99 100 100 98 94 88 84 81 78 75 73 70 67 64 61 59 58 57 55 53 51 49 48 47 47 47 47 47 46 46 44 43 42 41 40 39 38 37 37 36 36 36 35 33 31 30 29 29 30 32 33 32 29 27 25 25 26 27 28 29 29 30
72 72 71 71 70 70 71 72 74 76 77 79 81 83 84 85 86 88 90 92 94 95 97 99 99 95 90 85 80 78 76 75 73 70 67 64 60 57 55 54 53 52 51 50 49 47 46 45 45 45 44 43 42 40 38 37 36 36 35 35 34 34 34 33 32 30 28 27 27 27 27 28 28 27 26 24 23 23 24 24 25 27 28 29 30
68 67 67 67 67 69 70 72 74 76 78 80 82 84 85 86 86 88 90 93 94 96 98 98 94 87 81 77 75 73 72 71 69 66 63 60 56 53 51 49 48 47 47 47 45 44 43 42 42 41 39 38 36 35 34 33 33 32 32 31 31 31 30 28 27 25 25 25 24 24 24 23 23 22 22 22 22 23 23 24 25 27 27 28 30
64 64 65 66 67 69 71 73 74 76 78 81 82 84 85 86 87 89 91 93 95 98 99 94 86 79 74 72 71 70 68 66 64 61 57 53 50 47 44 42 41 40 40 41 40 40 40 39 38 36 34 32 31 31 30 29 29 28 28 28 28 26 24 22 21 21 21 21 21 21 21 21 21 22 22 22 22 23 23 24 25 26 27 28 29
63 64 65 67 68 70 72 73 75 77 79 81 82 84 85 85 87 89 91 93 96 98 95 86 78 72 70 68 67 67 65 61 58 54 50 47 44 42 40 38 37 37 38 38 38 38 37 35 33 31 30 28 27 26 26 26 25 25 24 23 20 18 16 16 16 17 18 19 20 20 21 22 22 22 22 22 22 23 23 23 24 25 26 27 28
64 65 66 67 69 71 72 74 76 78 79 81 83 84 84 86 88 90 92 95 97 95 87 77 71 67 65 63 63 64 61 56 51 49 46 44 43 41 39 38 37 37 36 35 34 32 31 30 28 27 26 24 23 22 23 22 21 20 17 14 12 10 11 12 14 15 17 18 19 21 21 22 22 23 23 23 22 22 22 22 23 24 25 26 26
65 66 67 68 70 71 73 75 77 78 80 81 83 83 84 86 89 90 93 96 95 87 77 70 66 63 60 59 60 60 58 53 47 44 44 43 41 39 37 36 34 32 30 29 28 28 27 26 25 24 23 22 21 20 19 17 14 12 10 8 8 8 10 12 13 15 16 17 19 20 21 22 22 22 22 22 21 21 21 21 22 23 24 25 25
66 67 67 68 70 72 74 76 77 78 80 81 82 83 85 87 89 91 95 94 87 76 68 64 62 58 56 55 56 56 55 52 47 43 41 39 37 34 33 32 31 29 28 27 27 25 24 24 23 22 21 20 19 17 14 11 8 7 6 7 7 9 10 11 12 12 13 15 16 18 19 19 20 21 20 20 19 20 20 21 22 22 23 25 26
66 66 68 69 71 74 75 77 77 79 80 81 82 84 86 87 90 93 93 87 75 67 63 61 58 55 53 52 52 52 51 50 47 43 39 35 32 31 31 31 29 28 28 28 26 24 23 21 20 19 19 18 16 13 10 7 6 6 7 8 9 8 8 8 9 11 12 14 15 16 17 18 18 18 18 18 18 19 20 21 22 23 24 25 27
66 67 68 70 72 74 75 76 77 79 80 81 82 84 86 88 91 92 86 75 66 61 59 57 54 52 50 49 48 48 47 46 44 41 37 33 30 29 30 29 27 27 27 26 23 21 19 17 16 16 16 15 13 9 6 7 8 8 8 8 8 7 6 7 9 10 12 13 14 15 16 17 17 18 18 18 19 20 21 22 23 24 25 27 28
66 68 69 71 73 74 74 75 77 78 79 81 83 84 86 89 90 85 75 66 61 59 56 53 51 50 48 46 45 45 44 42 40 36 33 30 27 26 25 25 24 24 23 22 19 16 15 14 14 12 11 11 9 6 7 9 9 8 7 7 7 8 8 8 9 11 12 13 15 16 17 17 18 19 19 20 20 21 22 23 24 26 27 28 29
Wind_Direction
272 273 274 275 276 278 278 279 280 281 283 284 285 287 288 289 290 290 291 291 292 292 292 292 293 294 295 295 296 296 296 296 296 296 297 297 297 297 297 297 297 296 296 296 296 296 297 297 297 297 297 298 298 299 299 299 299 299 299 298 298 297 296 295 297 300 301 299 298 297 297 297 297 297 297 296 295 294 294 294 294 295 295 295 296
273 274 276 277 278 279 280 281 282 283 285 286 286 287 288 288 289 289 290 290 290 291 292 292 293 294 295 295 295 295 295 295 296 296 296 296 296 296 296 296 296 296 296 296 296 296 297 298 298 298 298 298 299 299 298 298 298 298 298 298 298 297 296 296 296 298 299 298 296 296 296 295 295 295 294 294 293 293 292 293 293 294 294 294 294
274 276 277 278 279 280 281 282 283 284 285 285 286 286 287 287 288 288 289 290 290 292 292 293 294 294 295 295 295 295 295 295 295 295 295 295 295 295 295 295 296 296 296 296 296 297 297 298 298 298 298 298 298 298 298 298 298 298 298 298 297 297 296 296 296 296 297 296 296 295 294 293 293 293 292 292 292 292 292 292 292 293 293 293 293
276 277 278 278 279 280 281 282 283 284 285 285 286 286 287 288 289 290 291 291 292 293 294 294 295 295 295 295 295 294 294 294 294 294 294 294 294 294 294 294 294 295 295 295 296 296 297 297 297 297 297 298 298 297 297 297 297 297 297 296 296 295 295 294 294 294 294 295 295 294 293 293 292 292 291 291 291 291 291 291 292 292 292 291 291
277 278 279 279 280 281 282 283 284 284 285 286 287 288 289 290 291 292 292 293 293 294 294 294 295 295 295 294 294 294 293 293 293 293 293 293 293 293 292 293 293 293 294 294 295 295 295 296 296 296 296 297 297 296 296 296 295 295 295 294 294 293 293 293 293 293 293 293 294 293 292 292 292 291 291 291 291 291 291 291 291 291 290 290 289
279 280 280 281 282 282 283 284 285 286 287 288 290 290 291 292 292 292 293 293 294 294 294 294 294 294 294 294 293 293 293 293 292 292 292 292 292 291 291 291 291 292 293 293 294 294 294 295 295 295 295 295 295 295 295 294 294 294 294 293 293 292 292 292 292 292 292 292 293 292 292 291 291 291 291 291 291 291 291 290 290 289 289 289 289
280 281 282 282 283 284 285 286 287 288 289 290 290 291 291 291 292 292 293 293 294 294 294 294 294 293 293 293 292 292 292 291 291 291 291 290 290 289 289 290 291 292 293 293 293 294 294 294 295 295 295 295 295 295 295 294 294 294 294 293 292 292 292 292 291 292 292 292 292 293 292 292 292 292 292 291 291 291 290 290 289 289 288 288 288
281 282 283 284 285 285 286 287 288 289 290 290 291 291 291 292 292 292 293 293 293 293 293 293 292 292 291 291 291 290 290 290 289 289 288 288 287 287 288 289 290 291 292 292 292 293 293 294 294 295 295 295 295 294 294 294 293 293 293 292 292 292 292 292 292 292 292 292 293 293 292 292 292 292 292 291 291 290 290 289 289 289 288 288 288
281 282 283 284 285 286 287 288 289 290 290 291 291 291 291 291 292 292 293 293 293 292 292 291 291 291 291 290 290 290 289 289 288 288 287 286 286 286 286 288 289 290 290 291 291 292 293 294 294 295 295 295 295 295 295 294 294 294 294 293 293 293 293 293 293 293 292 293 293 293 292 293 293 292 292 292 291 291 290 290 290 289 289 289 289
282 283 284 284 285 286 287 288 289 290 290 290 290 290 291 291 292 292 292 292 291 291 290 291 291 291 291 290 290 290 289 289 288 287 287 287 287 287 288 289 289 290 291 291 292 293 294 294 295 296 296 297 297 296 296 296 295 295 295 294 294 294 294 294 294 294 293 293 294 293 293 293 293 292 292 292 292 291 291 290 290 290 290 290 289
283 284 285 285 286 287 288 289 290 290 289 290 290 291 291 292 292 291 291 290 290 290 291 291 291 291 291 291 291 291 290 290 290 289 289 290 290 290 291 291 292 292 292 293 293 294 295 295 296 297 297 298 297 297 297 296 296 295 295 296 296 296 296 296 296 295 294 294 294 294 294 294 293 292 292 292 292 291 291 291 290 290 289 288 288
285 285 286 286 287 288 289 289 289 289 289 290 291 292 292 292 291 291 291 291 291 291 292 291 291 291 291 292 292 292 292 292 292 292 292 292 292 293 293 293 293 293 294 294 295 295 296 296 297 298 298 298 298 298 297 297 296 296 296 297 297 297 297 296 296 295 294 294 294 294 294 293 292 292 292 292 291 291 291 290 290 289 288 287 286
285 286 286 287 288 288 288 288 289 290 291 292 292 292 292 291 291 291 291 292 292 292 292 291 291 291 292 292 293 293 293 293 293 293 293 293 293 294 294 294 294 295 295 296 296 297 297 298 298 299 299 299 298 298 297 297 297 297 297 297 297 296 295 295 294 293 293 292 292 293 293 292 292 292 291 291 290 290 290 289 288 287 287 286 285
286 286 287 288 288 288 289 290 291 292 292 293 292 292 292 291 291 292 292 292 292 292 291 290 290 291 292 293 294 294 294 294 294 294 294 294 294 294 295 295 296 297 297 298 298 298 299 299 299 299 299 299 298 297 297 297 296 296 296 296 295 294 294 293 293 292 292 292 292 292 292 292 292 292 291 290 290 290 289 288 287 286 286 286 285
286 286 287 288 288 289 290 291 292 292 292 292 291 291 291 291 292 292 292 292 292 291 290 290 290 291 292 293 294 295 295 295 294 294 294 294 295 295 296 296 297 298 298 298 298 299 299 299 299 299 298 298 297 296 296 295 295 295 295 294 294 293 293 292 292 292 292 292 292 292 292 292 292 291 291 290 290 289 288 287 286 286 286 285 284
286 287 288 288 289 290 290 291 291 291 291 291 291 291 291 291 291 291 291 291 291 291 290 290 291 291 292 293 294 294 295 294 294 295 295 295 296 296 297 297 297 297 298 298 298 298 298 298 298 297 297 297 296 295 295 294 294 294 294 293 292 292 292 292 292 292 292 292 292 292 292 292 291 291 290 290 289 288 288 287 287 286 285 284 283
286 287 288 288 289 289 290 290 290 290 290 290 290 290 291 291 291 291 291 291 291 290 290 290 291 292 292 293 293 294 294 295 295 295 296 296 296 296 297 297 297 297 297 296 296 297 297 297 297 296 296 296 295 294 294 293 293 293 293 292 292 292 293 293 292 292 292 292 292 292 292 291 291 290 289 289 288 287 287 287 287 286 285 284 283
286 287 287 288 288 288 289 289 289 289 289 289 290 290 290 290 290 290 290 290 290 290 290 291 291 292 292 293 293 294 294 295 295 296 296 296 296 296 296 296 296 296 296 295 296 296 296 296 296 296 295 295 294 294 293 293 293 293 293 293 293 294 294 293 292 292 292 292 292 292 291 291 290 289 288 288 287 287 287 286 286 285 284 283 282
286 287 287 287 288 288 288 288 288 289 289 289 289 290 290 290 290 290 290 290 291 291 291 291 292 292 293 293 294 295 295 296 296 296 296 296 296 296 296 296 296 295 295 295 296 296 296 296 296 295 295 294 294 294 294 293 294 294 294 294 294 295 294 293 293 293 293 293 292 292 291 290 289 289 288 287 287 286 286 285 284 284 283 283 282
286 286 287 287 287 288 288 288 288 288 289 289 289 289 290 290 290 290 291 291 291 292 292 292 293 293 294 295 295 296 296 296 296 296 296 296 296 296 296 296 296 296 296 296 296 296 296 296 295 295 295 295 295 294 294 294 295 295 295 295 295 295 294 294 294 294 293 293 293 292 291 290 289 288 288 287 286 285 284 284 283 283 282 282 282
285 286 287 287 287 288 288 288 288 288 289 289 289 290 290 290 291 291 291 292 292 293 293 294 294 294 295 295 295 295 295 295 295 295 295 295 296 296 296 296 297 296 296 296 296 296 296 296 295 295 295 295 295 295 295 295 295 295 295 296 295 295 295 294 294 294 294 294 293 292 291 290 289 288 287 286 285 284 283 283 282 282 281 282 281
285 286 286 287 287 287 287 288 288 289 289 290 290 290 290 291 291 292 292 293 293 293 294 294 294 294 294 294 294 294 294 295 295 295 296 296 296 296 297 297 297 297 297 297 297 296 296 296 296 296 295 295 295 295 295 295 295 295 295 295 295 295 295 294 294 294 294 293 292 292 291 290 288 287 285 284 283 283 282 282 281 281 281 282 280
285 285 286 286 286 287 287 288 288 289 289 290 290 290 291 291 292 292 292 293 293 293 293 293 293 293 294 294 294 294 294 295 295 296 296 296 296 296 296 297 297 297 297 297 297 297 297 296 296 296 295 295 295 295 295 295 295 295 295 295 295 294 294 294 294 294 293 293 292 291 290 288 287 285 284 282 282 281 281 281 281 282 282 282 281
284 285 285 286 286 287 287 288 288 289 289 290 290 290 291 291 291 292 292 292 293 293 293 293 293 294 294 294 294 294 295 295 295 296 296 296 296 296 296 296 297 297 297 297 297 297 297 296 296 295 295 295 295 295 295 295 295 295 295 295 295 294 294 294 294 293 293 292 291 290 289 287 285 284 282 280 280 280 280 281 281 282 281 281 280
284 284 285 285 286 287 287 288 288 289 289 289 290 290 290 291 291 292 292 293 293 294 294 294 294 295 295 295 295 295 295 295 295 295 295 295 295 296 296 296 297 297 297 297 297 296 296 296 295 295 295 295 295 295 295 295 295 295 295 295 295 294 294 294 293 293 292 291 289 288 287 285 283 281 279 278 279 279 280 280 281 282 283 282 281
283 283 284 285 286 286 287 287 288 288 289 289 290 290 291 292 292 293 293 294 294 294 295 295 295 295 295 295 295 295 295 295 295 295 295 295 295 296 296 297 297 297 296 296 296 296 295 295 295 295 296 296 296 296 296 296 295 295 295 295 294 294 294 293 292 291 290 289 288 287 286 284 281 279 278 278 278 278 279 279 280 282 283 281 281
282 283 284 285 285 286 287 287 288 288 289 290 291 292 292 293 294 294 294 294 294 295 295 295 296 296 295 295 295 295 295 296 296 296 296 296 297 297 297 297 297 296 296 296 296 295 295 295 295 296 296 297 297 297 296 296 296 295 295 294 293 293 293 292 291 290 289 287 286 285 284 282 279 277 277 277 277 278 279 279 280 281 277 272 274
283 284 284 285 286 286 287 288 289 289 290 291 292 293 293 293 294 294 294 295 295 295 296 296 296 296 296 296 296 296 296 297 297 298 298 298 298 298 298 297 297 297 297 296 296 295 295 296 296 296 297 297 296 296 296 295 295 294 293 293 292 292 291 290 289 288 287 286 285 284 282 280 278 277 276 276 277 277 278 279 280 280 277 273 274
284 285 285 286 287 288 289 290 290 291 291 292 292 292 293 293 293 294 295 295 296 297 297 297 297 297 297 297 298 298 298 298 298 298 298 299 299 299 299 298 298 297 297 297 297 296 296 297 297 297 296 296 295 295 295 294 294 293 292 291 291 290 290 289 287 286 285 285 283 282 280 278 277 276 276 276 276 277 277 278 279 280 280 278 277
286 287 288 288 289 289 290 290 291 291 291 291 291 291 292 293 294 295 295 296 297 297 298 298 298 298 298 298 298 298 299 299 299 299 299 299 299 299 299 299 299 298 298 298 297 297 297 297 297 296 296 295 295 294 294 293 293 292 290 290 289 288 287 287 286 285 284 283 281 280 278 276 275 275 276 276 276 276 277 278 279 280 279 277 276
287 288 288 289 289 290 290 290 290 290 291 291 291 292 292 293 294 295 296 296 296 297 297 298 298 298 298 298 298 298 299 300 300 301 301 301 300 299 299 299 299 299 299 298 297 297 297 296 296 295 295 294 294 293 293 292 291 290 289 288 287 286 285 284 284 283 282 281 279 277 276 275 274 275 275 275 275 275 276 277 279 279 277 274 273
287 287 288 288 289 289 289 289 290 291 291 292 293 293 294 294 294 295 296 296 297 297 297 298 298 298 298 299 299 299 300 300 301 301 302 301 301 300 300 299 299 299 298 297 296 295 295 294 293 293 292 292 292 291 291 290 289 288 287 286 285 284 283 282 282 282 281 279 277 275 274 274 274 274 275 275 275 275 276 277 277 276 273 272 271
286 287 287 288 288 289 290 291 291 292 293 294 294 295 295 295 295 295 295 296 296 297 298 298 298 298 298 299 300 301 301 302 302 302 302 302 302 302 301 301 300 299 297 295 294 293 292 291 291 291 290 290 290 289 288 288 287 285 284 283 282 281 281 281 281 281 280 277 275 274 273 273 273 274 275 274 274 274 275 275 274 273 273 272 270
286 287 288 289 290 291 292 292 293 293 294 295 295 296 296 297 297 297 297 297 297 297 297 298 299 299 299 300 300 301 302 303 303 303 303 303 303 302 301 300 299 297 295 294 294 293 292 292 291 290 289 289 288 287 287 285 283 282 281 280 279 279 279 280 280 280 278 276 273 272 272 272 273 273 273 272 272 272 273 272 271 272 272 270 266
288 289 290 291 292 292 293 293 294 294 295 296 296 297 297 297 298 298 298 299 299 299 299 299 300 300 301 302 302 303 303 304 305 305 305 304 303 301 300 299 298 297 296 295 295 295 294 293 291 290 289 288 287 286 284 283 281 279 278 277 277 277 278 279 279 278 276 274 272 271 271 272 272 271 271 271 271 270 269 269 269 269 267 264 261
290 291 291 292 292 293 293 294 295 295 296 296 297 297 297 298 298 299 299 300 300 301 301 301 302 302 303 304 304 305 306 306 307 307 306 304 303 302 301 300 300 299 298 298 297 296 294 293 291 290 288 287 285 283 282 280 279 278 276 276 276 276 277 278 277 276 273 272 271 270 270 271 270 268 267 268 268 268 268 267 266 263 260 257 255
290 291 291 292 293 293 294 294 295 295 296 296 297 297 298 298 299 299 300 301 302 303 303 304 304 304 305 305 306 308 309 309 308 307 306 305 304 304 303 303 302 302 301 300 298 296 294 293 292 290 288 287 285 283 281 280 278 277 277 276 277 277 277 277 275 273 271 270 269 269 269 268 265 262 262 264 266 266 265 264 261 257 254 252 251
290 291 292 292 292 293 293 294 294 295 295 296 297 297 298 298 299 301 302 303 304 305 306 307 307 308 308 309 310 311 311 311 309 308 307 306 306 305 305 305 304 303 302 301 299 297 295 294 292 291 289 288 286 284 282 280 279 278 277 277 276 276 275 274 271 269 268 267 267 267 266 262 258 258 261 264 264 263 261 257 253 250 248 247 248
290 291 291 292 292 293 293 294 294 295 296 296 297 298 299 300 301 303 304 305 306 307 308 310 311 312 313 313 313 313 312 311 310 309 308 307 307 306 306 306 305 304 302 301 299 297 296 294 293 291 289 288 286 284 282 281 280 278 277 275 274 273 271 269 267 266 265 266 266 264 259 253 253 258 262 263 261 256 251 247 244 243 243 244 245
290 290 291 291 292 293 293 294 295 295 296 297 298 299 301 302 304 305 306 308 309 310 311 313 314 315 316 315 314 313 313 312 311 310 310 309 308 307 307 306 305 304 303 301 300 298 296 295 293 292 290 289 287 285 283 281 279 278 275 273 272 270 269 267 265 265 264 265 263 257 250 248 254 261 262 258 250 244 240 239 239 240 241 244 246
289 290 290 291 292 293 293 294 295 295 297 298 300 301 303 305 306 307 309 310 311 313 315 316 317 317 317 316 314 314 314 313 313 312 311 310 309 308 306 305 305 304 303 302 300 299 297 296 294 293 291 290 289 287 285 283 280 278 275 273 271 269 268 266 265 265 264 261 254 248 246 252 259 260 255 247 241 239 240 240 240 241 243 245 248
288 289 290 291 291 292 293 294 295 296 298 300 301 303 304 306 307 309 310 312 313 315 317 318 319 318 316 315 314 314 314 314 314 313 311 310 309 307 306 305 304 303 302 301 300 299 298 297 296 294 293 291 290 288 286 283 280 278 275 273 271 269 267 267 267 264 258 250 245 245 251 255 255 249 241 236 236 239 241 242 242 243 244 246 248
288 289 289 290 291 292 293 294 296 297 299 301 302 304 305 307 308 310 312 314 315 317 319 319 319 317 315 314 314 315 315 315 314 313 311 310 309 308 307 306 304 303 302 301 301 300 299 299 298 297 296 294 292 290 286 283 280 277 275 272 270 269 269 268 263 255 246 242 244 247 249 246 240 233 230 230 233 236 239 241 244 245 246 248 250
287 288 289 290 291 293 294 296 297 299 300 301 303 304 306 307 309 311 313 315 317 319 319 319 318 316 314 314 314 315 316 316 315 313 313 313 312 311 310 309 307 305 303 302 302 301 301 302 302 301 300 297 294 291 287 283 280 277 275 274 272 271 267 260 250 243 241 242 242 239 234 230 227 227 227 228 231 234 238 242 244 247 248 251 255
286 287 289 291 293 295 296 298 299 300 301 302 304 305 307 308 310 313 314 316 318 319 319 318 316 315 314 314 315 316 318 318 317 316 316 317 317 316 314 312 310 308 306 304 303 303 303 304 304 303 302 299 295 292 288 285 282 280 277 274 269 263 255 248 244 243 242 237 230 226 224 224 225 226 226 227 229 233 237 241 245 248 251 255 259
287 288 290 292 295 297 298 299 300 301 302 304 305 307 308 310 312 314 315 317 319 319 317 316 315 315 314 314 315 318 320 320 319 318 318 318 318 317 316 314 313 312 310 308 307 306 306 306 305 304 302 299 297 295 292 288 284 279 271 262 253 248 247 247 244 239 232 224 222 223 225 225 224 225 226 227 229 232 237 242 247 251 254 257 260
288 290 292 294 296 298 299 300 301 302 303 305 307 308 310 312 313 315 317 318 319 317 316 315 314 314 314 314 315 318 320 321 320 318 317 317 317 317 317 318 318 317 316 314 311 309 308 307 306 305 303 301 299 296 292 286 277 266 253 240 232 233 234 231 228 224 222 222 225 227 227 226 224 224 224 226 229 233 238 244 248 252 255 257 260
289 291 293 295 297 298 299 300 302 303 305 306 308 310 311 313 314 316 318 318 317 315 314 314 314 314 313 314 316 318 321 322 321 320 318 318 319 319 320 321 321 320 318 316 314 311 310 309 308 307 306 304 300 293 284 273 258 245 230 215 210 213 216 217 217 219 222 226 228 228 227 226 225 225 225 228 231 236 241 245 249 252 254 257 260
291 292 294 296 297 298 300 301 303 304 306 307 309 311 312 314 316 317 318 317 316 314 313 313 313 313 313 313 316 318 320 320 320 320 320 320 319 320 322 323 322 322 321 320 317 314 312 311 311 310 309 305 298 287 273 248 218 204 199 198 201 208 213 216 217 219 220 222 223 224 225 226 228 229 230 233 236 240 244 247 250 252 255 258 261
291 293 294 296 297 299 301 302 304 306 307 309 310 312 313 315 317 318 317 316 314 313 312 311 311 312 312 312 315 317 318 317 317 318 318 318 317 318 321 322 324 327 328 327 324 321 317 315 313 308 303 299 294 279 244 204 193 197 203 207 214 225 231 226 222 222 223 223 223 225 227 229 231 234 235 238 241 244 247 249 252 255 258 261 263
291 293 295 296 298 300 302 304 305 306 308 310 311 313 315 316 318 317 316 314 313 312 310 309 310 310 310 311 314 315 316 314 313 312 313 312 312 314 317 320 324 329 333 335 336 337 338 338 335 326 314 303 291 256 209 196 199 210 219 226 239 251 252 245 238 234 232 231 231 232 233 235 237 239 241 244 246 249 251 254 256 259 261 264 266
Height
5816 5816 5815 5815 5814 5813 5812 5811 5810 5809 5808 5807 5806 5805 5803 5802 5800 5799 5797 5795 5793 5792 5790 5788 5786 5783 5781 5779 5776 5773 5771 5768 5766 5763 5761 5758 5756 5753 5751 5749 5747 5745 5742 5740 5737 5734 5732 5730 5727 5724 5721 5718 5716 5713 5710 5707 5704 5701 5698 5695 5692 5688 5684 5681 5679 5684 5690 5686 5679 5678 5676 5672 5671 5669 5665 5662 5659 5656 5653 5650 5647 5644 5641 5638 5635
5811 5810 5810 5809 5809 5808 5807 5806 5805 5803 5802 5801 5800 5798 5797 5796 5794 5793 5791 5789 5787 5785 5783 5781 5779 5776 5774 5771 5769 5766 5763 5761 5758 5756 5754 5751 5749 5746 5744 5742 5740 5738 5736 5733 5730 5727 5725 5723 5721 5717 5714 5712 5710 5707 5704 5701 5697 5695 5692 5688 5686 5683 5677 5674 5672 5672 5678 5680 5674 5670 5669 5665 5663 5661 5657 5654 5651 5648 5645 5642 5639 5635 5632 5629 5626
5806 5805 5805 5804 5803 5802 5801 5800 5799 5798 5797 5795 5794 5793 5791 5790 5788 5787 5785 5783 5781 5778 5776 5773 5771 5769 5766 5764 5761 5758 5756 5753 5751 5749 5747 5744 5742 5739 5737 5735 5733 5731 5729 5726 5724 5721 5718 5717 5714 5710 5707 5705 5704 5700 5696 5694 5690 5688 5686 5682 5679 5677 5671 5667 5665 5663 5665 5670 5667 5661 5658 5657 5654 5652 5649 5645 5642 5639 5636 5633 5630 5626 5623 5620 5616
5801 5800 5800 5799 5798 5797 5795 5794 5793 5792 5791 5789 5788 5786 5785 5783 5781 5779 5777 5775 5773 5771 5768 5766 5763 5761 5758 5756 5753 5751 5748 5746 5743 5741 5739 5737 5735 5733 5730 5728 5726 5724 5722 5720 5717 5715 5712 5710 5707 5703 5701 5699 5697 5693 5689 5687 5684 5680 5678 5675 5671 5669 5665 5659 5656 5654 5653 5656 5659 5653 5647 5646 5644 5641 5638 5635 5632 5629 5626 5623 5620 5616 5613 5610 5606
5795 5794 5794 5793 5792 5790 5789 5788 5787 5785 5784 5782 5781 5779 5777 5775 5773 5771 5769 5767 5765 5763 5761 5758 5756 5753 5751 5748 5745 5742 5740 5738 5736 5734 5732 5730 5729 5727 5724 5722 5720 5717 5716 5713 5711 5708 5706 5703 5700 5697 5694 5692 5690 5686 5682 5679 5676 5673 5671 5668 5663 5660 5657 5652 5648 5645 5642 5642 5645 5644 5638 5634 5632 5630 5628 5624 5621 5618 5615 5612 5609 5605 5602 5599 5596
5789 5788 5787 5786 5785 5784 5782 5781 5780 5778 5777 5775 5773 5771 5770 5768 5766 5763 5761 5759 5757 5755 5753 5750 5748 5745 5742 5740 5737 5735 5732 5730 5729 5727 5725 5723 5721 5719 5717 5715 5713 5711 5709 5706 5704 5701 5699 5696 5693 5690 5687 5685 5682 5679 5675 5672 5668 5666 5662 5659 5655 5651 5648 5644 5639 5635 5633 5630 5631 5631 5628 5624 5621 5619 5617 5613 5609 5607 5604 5600 5597 5594 5591 5588 5585
5782 5781 5780 5779 5778 5776 5775 5774 5772 5771 5769 5767 5766 5764 5762 5760 5758 5756 5754 5752 5749 5747 5745 5742 5740 5737 5735 5732 5730 5727 5725 5723 5721 5719 5717 5716 5714 5712 5710 5708 5706 5704 5702 5699 5696 5694 5691 5688 5686 5683 5679 5676 5673 5670 5666 5663 5659 5657 5654 5649 5646 5642 5638 5635 5631 5626 5623 5620 5619 5618 5615 5613 5610 5607 5605 5602 5598 5595 5592 5588 5585 5583 5580 5577 5574
5775 5774 5773 5772 5770 5769 5768 5766 5765 5763 5761 5760 5758 5756 5755 5752 5751 5748 5746 5744 5741 5739 5737 5734 5732 5730 5728 5725 5723 5720 5718 5716 5714 5712 5710 5709 5707 5706 5704 5701 5699 5697 5694 5692 5689 5686 5684 5681 5678 5674 5671 5667 5664 5660 5657 5653 5650 5648 5645 5639 5635 5632 5629 5625 5621 5617 5613 5610 5609 5606 5603 5600 5598 5595 5593 5590 5587 5584 5580 5576 5574 5571 5569 5566 5563
5768 5767 5766 5765 5763 5762 5760 5758 5757 5755 5754 5752 5750 5748 5746 5744 5743 5740 5738 5736 5733 5731 5729 5727 5725 5723 5720 5718 5715 5713 5710 5708 5706 5704 5702 5701 5700 5698 5696 5694 5691 5689 5687 5685 5682 5678 5675 5673 5669 5666 5662 5658 5654 5650 5646 5642 5638 5636 5634 5629 5625 5622 5619 5615 5611 5607 5602 5599 5598 5595 5591 5589 5587 5583 5581 5579 5575 5572 5568 5565 5562 5560 5557 5555 5553
5761 5760 5758 5757 5756 5754 5753 5751 5749 5747 5746 5744 5742 5740 5738 5736 5734 5732 5730 5728 5725 5723 5721 5719 5717 5715 5712 5710 5707 5704 5702 5700 5698 5696 5694 5692 5691 5690 5689 5686 5683 5680 5678 5676 5674 5670 5666 5663 5660 5656 5652 5648 5644 5639 5635 5631 5626 5624 5621 5618 5613 5610 5607 5604 5600 5596 5590 5588 5587 5583 5579 5578 5576 5571 5569 5567 5564 5560 5557 5553 5551 5548 5546 5544 5541
5753 5752 5751 5749 5748 5746 5745 5743 5741 5739 5737 5735 5733 5732 5730 5728 5726 5723 5721 5719 5717 5715 5713 5710 5708 5706 5704 5702 5699 5697 5693 5691 5689 5687 5684 5682 5681 5680 5679 5677 5673 5670 5668 5665 5663 5661 5657 5653 5649 5646 5641 5637 5633 5629 5625 5620 5615 5612 5609 5606 5601 5597 5594 5590 5588 5584 5578 5574 5574 5572 5568 5566 5565 5560 5557 5556 5553 5549 5546 5543 5540 5538 5535 5532 5530
5745 5743 5742 5741 5739 5738 5736 5734 5732 5730 5728 5726 5725 5723 5721 5719 5717 5715 5712 5710 5708 5706 5704 5702 5700 5697 5696 5694 5692 5689 5685 5682 5679 5677 5674 5671 5669 5668 5668 5665 5663 5661 5658 5655 5652 5649 5646 5643 5639 5635 5631 5625 5621 5617 5613 5609 5605 5600 5597 5594 5590 5586 5581 5577 5574 5571 5566 5562 5561 5561 5558 5554 5552 5549 5546 5543 5541 5538 5535 5532 5530 5527 5524 5522 5520
5736 5735 5734 5732 5731 5729 5727 5725 5723 5721 5719 5717 5715 5713 5711 5710 5708 5706 5704 5702 5700 5698 5696 5694 5691 5689 5687 5686 5684 5681 5677 5673 5670 5667 5664 5661 5658 5656 5656 5654 5652 5649 5646 5643 5640 5637 5634 5631 5628 5625 5619 5613 5609 5604 5600 5596 5593 5590 5586 5583 5580 5576 5571 5567 5563 5558 5554 5551 5549 5550 5549 5542 5538 5538 5535 5531 5529 5527 5524 5521 5517 5515 5513 5511 5509
5728 5726 5725 5723 5721 5719 5717 5716 5714 5712 5710 5707 5705 5704 5702 5701 5699 5698 5696 5694 5692 5690 5687 5685 5683 5680 5678 5676 5675 5672 5668 5664 5660 5657 5654 5650 5647 5645 5643 5641 5639 5637 5634 5630 5627 5624 5621 5617 5615 5612 5608 5602 5597 5591 5587 5584 5581 5579 5577 5573 5570 5567 5563 5558 5553 5547 5542 5539 5536 5536 5537 5532 5526 5525 5523 5519 5517 5515 5511 5508 5505 5502 5501 5499 5497
5719 5717 5716 5714 5712 5710 5708 5706 5704 5702 5701 5698 5697 5695 5693 5692 5691 5689 5688 5686 5684 5682 5679 5677 5675 5672 5669 5667 5665 5664 5659 5654 5650 5647 5643 5639 5636 5633 5631 5629 5627 5625 5622 5618 5614 5611 5608 5604 5602 5599 5596 5592 5586 5580 5575 5572 5569 5568 5566 5563 5560 5557 5553 5549 5543 5536 5531 5528 5524 5522 5523 5521 5515 5512 5510 5507 5505 5502 5499 5496 5493 5490 5489 5487 5485
5710 5708 5707 5705 5703 5701 5699 5697 5695 5694 5692 5690 5688 5687 5685 5684 5682 5681 5679 5677 5675 5673 5671 5669 5666 5663 5660 5657 5655 5654 5651 5645 5639 5636 5632 5627 5624 5621 5618 5616 5615 5613 5611 5607 5602 5600 5597 5593 5589 5586 5584 5580 5575 5569 5564 5559 5556 5555 5553 5551 5548 5545 5543 5539 5531 5525 5521 5517 5512 5509 5508 5507 5504 5499 5497 5495 5492 5489 5485 5483 5482 5479 5477 5475 5473
5701 5700 5698 5696 5695 5693 5691 5689 5688 5686 5684 5682 5680 5678 5677 5675 5673 5672 5671 5669 5667 5664 5662 5660 5657 5654 5651 5647 5644 5643 5642 5636 5629 5624 5621 5615 5611 5609 5606 5603 5602 5600 5598 5595 5592 5589 5586 5582 5577 5573 5571 5568 5563 5558 5552 5546 5542 5541 5539 5537 5535 5533 5532 5527 5518 5513 5510 5506 5502 5498 5495 5493 5490 5486 5484 5482 5479 5476 5472 5471 5471 5468 5465 5463 5462
5693 5691 5689 5688 5686 5685 5683 5682 5680 5678 5676 5674 5673 5670 5668 5666 5665 5663 5661 5660 5658 5655 5653 5651 5648 5645 5641 5637 5634 5631 5630 5627 5620 5613 5609 5604 5598 5595 5592 5590 5588 5587 5584 5583 5581 5578 5575 5571 5566 5561 5557 5555 5551 5545 5540 5533 5528 5526 5524 5521 5520 5520 5518 5512 5504 5502 5500 5495 5491 5487 5482 5480 5477 5473 5471 5470 5467 5463 5461 5460 5458 5456 5453 5452 5451
5684 5683 5681 5680 5678 5677 5675 5673 5672 5670 5668 5666 5664 5662 5660 5658 5656 5654 5652 5650 5648 5646 5643 5640 5639 5636 5631 5626 5623 5619 5616 5615 5610 5602 5596 5592 5586 5581 5578 5575 5574 5572 5570 5569 5568 5566 5563 5559 5554 5549 5543 5540 5537 5533 5527 5520 5513 5510 5509 5505 5504 5505 5502 5495 5491 5489 5487 5484 5481 5476 5471 5468 5464 5460 5458 5457 5454 5452 5450 5448 5446 5444 5442 5440 5439
5676 5674 5673 5671 5670 5668 5667 5665 5663 5662 5660 5658 5656 5653 5651 5649 5646 5644 5642 5639 5637 5634 5631 5628 5626 5625 5621 5615 5611 5607 5602 5600 5598 5593 5586 5580 5574 5568 5564 5561 5558 5555 5554 5554 5553 5551 5549 5544 5540 5536 5529 5524 5522 5518 5514 5507 5499 5495 5493 5490 5488 5488 5485 5480 5477 5475 5473 5471 5468 5464 5460 5457 5452 5448 5446 5444 5442 5441 5438 5435 5434 5433 5431 5429 5428
5668 5666 5664 5663 5661 5659 5658 5656 5654 5653 5651 5649 5647 5644 5641 5639 5636 5633 5630 5628 5625 5622 5618 5614 5611 5611 5610 5605 5600 5596 5591 5586 5584 5581 5576 5569 5562 5556 5550 5547 5543 5537 5536 5537 5536 5534 5531 5528 5525 5521 5515 5509 5506 5502 5498 5494 5486 5481 5478 5475 5472 5470 5468 5465 5463 5461 5458 5457 5454 5450 5448 5445 5441 5438 5434 5431 5430 5429 5427 5424 5423 5421 5420 5419 5418
5660 5658 5657 5655 5653 5651 5649 5647 5645 5643 5641 5639 5637 5634 5630 5627 5624 5621 5618 5615 5612 5609 5605 5601 5598 5597 5597 5594 5590 5585 5580 5575 5571 5568 5563 5556 5550 5543 5537 5533 5528 5521 5517 5518 5518 5516 5513 5511 5509 5505 5500 5495 5491 5487 5483 5479 5473 5468 5464 5460 5456 5454 5451 5449 5448 5447 5444 5443 5440 5437 5435 5432 5429 5426 5423 5420 5418 5417 5415 5414 5412 5410 5410 5409 5408
5652 5650 5648 5646 5644 5642 5639 5637 5635 5633 5631 5628 5626 5623 5620 5616 5613 5609 5605 5602 5599 5597 5593 5589 5585 5583 5582 5581 5578 5574 5568 5564 5560 5556 5550 5543 5536 5530 5524 5520 5516 5509 5502 5500 5500 5498 5495 5494 5492 5489 5485 5481 5476 5472 5468 5465 5460 5455 5450 5445 5441 5438 5436 5434 5433 5431 5430 5428 5425 5423 5422 5419 5417 5415 5412 5409 5407 5405 5404 5403 5401 5401 5400 5399 5398
5644 5642 5640 5637 5635 5632 5630 5627 5625 5622 5620 5617 5614 5611 5608 5605 5602 5598 5594 5590 5586 5584 5581 5577 5572 5570 5568 5566 5565 5563 5557 5552 5549 5545 5539 5530 5522 5517 5513 5508 5503 5497 5490 5486 5483 5479 5477 5476 5474 5471 5468 5465 5460 5456 5453 5450 5445 5440 5435 5431 5427 5424 5422 5420 5418 5417 5415 5413 5411 5409 5408 5406 5404 5403 5401 5398 5396 5395 5394 5392 5391 5391 5392 5391 5389
5635 5633 5630 5628 5625 5623 5620 5618 5614 5612 5609 5606 5603 5600 5597 5594 5591 5587 5582 5578 5574 5571 5567 5564 5560 5556 5552 5550 5549 5548 5545 5540 5536 5533 5526 5517 5509 5504 5500 5495 5490 5484 5477 5473 5468 5463 5459 5457 5456 5454 5451 5447 5443 5440 5438 5435 5431 5425 5421 5417 5413 5409 5408 5406 5404 5402 5401 5399 5397 5396 5395 5394 5393 5391 5389 5387 5385 5385 5384 5383 5382 5382 5383 5382 5380
5626 5623 5621 5619 5616 5614 5611 5608 5604 5601 5598 5595 5592 5588 5585 5582 5580 5576 5571 5567 5563 5559 5554 5551 5546 5541 5537 5534 5532 5531 5529 5526 5523 5519 5512 5504 5498 5492 5486 5482 5477 5470 5463 5458 5453 5447 5443 5440 5438 5437 5434 5431 5427 5424 5421 5420 5416 5411 5407 5403 5399 5396 5395 5393 5391 5390 5388 5386 5384 5383 5383 5383 5382 5380 5378 5377 5376 5375 5375 5374 5374 5374 5375 5374 5372
5616 5614 5612 5609 5606 5604 5601 5598 5595 5591 5588 5585 5581 5577 5574 5571 5568 5565 5560 5554 5550 5547 5542 5537 5533 5527 5521 5519 5517 5514 5512 5511 5508 5503 5496 5491 5485 5478 5472 5467 5462 5455 5448 5443 5436 5430 5427 5425 5424 5421 5419 5416 5413 5410 5406 5403 5401 5398 5394 5390 5387 5384 5382 5380 5379 5377 5376 5374 5373 5372 5372 5372 5371 5369 5368 5367 5366 5366 5365 5366 5365 5366 5367 5367 5365
5607 5605 5602 5599 5596 5594 5591 5587 5584 5581 5578 5574 5571 5568 5564 5560 5557 5554 5548 5541 5537 5534 5530 5525 5519 5512 5506 5503 5500 5496 5495 5496 5493 5486 5479 5474 5468 5461 5454 5450 5445 5438 5432 5426 5418 5413 5411 5411 5410 5408 5405 5401 5399 5396 5393 5389 5387 5384 5381 5377 5375 5373 5370 5369 5368 5366 5365 5363 5362 5361 5361 5361 5360 5359 5358 5357 5357 5357 5357 5357 5357 5357 5358 5358 5357
5597 5594 5591 5588 5585 5582 5579 5576 5573 5570 5567 5564 5561 5558 5554 5549 5546 5544 5540 5532 5524 5520 5516 5512 5507 5499 5492 5488 5483 5477 5476 5479 5478 5472 5466 5460 5452 5443 5434 5429 5425 5421 5416 5409 5400 5394 5395 5396 5394 5393 5390 5387 5384 5382 5379 5376 5374 5372 5369 5366 5363 5361 5359 5358 5356 5355 5354 5353 5352 5352 5351 5351 5350 5350 5349 5349 5348 5348 5348 5349 5349 5349 5350 5350 5350
5586 5583 5580 5577 5574 5571 5569 5565 5562 5559 5556 5553 5550 5548 5545 5540 5535 5531 5529 5525 5518 5510 5502 5497 5493 5486 5479 5476 5472 5464 5458 5456 5456 5453 5450 5445 5439 5430 5420 5411 5405 5401 5399 5393 5383 5378 5378 5378 5377 5376 5373 5371 5369 5367 5365 5363 5361 5359 5357 5355 5352 5350 5348 5347 5346 5345 5344 5344 5343 5342 5342 5341 5340 5340 5341 5340 5340 5340 5340 5341 5341 5341 5342 5342 5343
5575 5572 5569 5566 5564 5561 5558 5555 5551 5548 5544 5540 5538 5535 5534 5533 5528 5521 5515 5512 5510 5505 5496 5487 5479 5471 5463 5459 5457 5454 5448 5442 5436 5432 5428 5425 5421 5415 5408 5400 5392 5385 5380 5373 5366 5363 5363 5360 5358 5358 5357 5354 5353 5352 5350 5348 5347 5346 5344 5343 5341 5340 5337 5336 5336 5335 5334 5334 5333 5333 5332 5332 5332 5332 5332 5332 5332 5332 5333 5333 5334 5334 5335 5335 5336
5565 5562 5559 5557 5554 5551 5547 5544 5540 5537 5533 5529 5525 5522 5519 5518 5519 5516 5510 5501 5495 5492 5487 5480 5472 5464 5453 5444 5438 5436 5435 5431 5425 5419 5412 5405 5399 5394 5390 5386 5380 5373 5364 5354 5348 5347 5346 5342 5340 5341 5340 5338 5337 5336 5335 5334 5333 5332 5331 5330 5330 5329 5327 5326 5325 5325 5325 5325 5324 5323 5323 5323 5323 5324 5324 5324 5325 5325 5326 5326 5327 5327 5328 5329 5329
5555 5552 5549 5547 5544 5540 5536 5533 5529 5525 5521 5517 5513 5509 5505 5501 5500 5501 5501 5497 5489 5481 5474 5467 5459 5453 5447 5439 5428 5419 5415 5413 5410 5406 5399 5390 5381 5374 5369 5368 5366 5359 5348 5337 5332 5330 5328 5325 5323 5324 5323 5322 5321 5320 5320 5321 5320 5319 5318 5318 5318 5317 5316 5315 5315 5315 5315 5316 5315 5314 5315 5315 5315 5316 5317 5317 5318 5318 5319 5320 5320 5321 5322 5322 5323
5545 5542 5539 5536 5532 5528 5525 5521 5517 5513 5509 5505 5501 5497 5493 5488 5484 5480 5479 5480 5479 5475 5469 5459 5448 5438 5432 5428 5423 5413 5404 5396 5391 5388 5384 5377 5368 5358 5351 5349 5349 5343 5333 5322 5316 5313 5311 5309 5308 5308 5307 5307 5307 5306 5306 5307 5307 5306 5306 5306 5306 5305 5305 5306 5306 5306 5306 5307 5306 5306 5307 5307 5308 5308 5309 5310 5311 5312 5313 5313 5314 5315 5316 5316 5317
5534 5531 5528 5524 5521 5517 5513 5509 5505 5502 5498 5493 5489 5485 5480 5476 5471 5467 5462 5459 5456 5456 5454 5449 5441 5430 5419 5411 5408 5405 5398 5387 5377 5370 5366 5360 5352 5343 5336 5331 5329 5325 5319 5311 5304 5299 5296 5295 5294 5294 5294 5294 5294 5293 5293 5293 5294 5294 5294 5295 5294 5295 5296 5297 5297 5297 5297 5298 5298 5298 5299 5299 5300 5301 5302 5303 5304 5306 5306 5307 5308 5309 5309 5310 5311
5523 5520 5517 5513 5509 5506 5502 5498 5494 5490 5486 5482 5478 5474 5469 5465 5460 5455 5451 5446 5441 5437 5434 5431 5427 5420 5410 5399 5391 5388 5386 5379 5368 5358 5350 5342 5335 5328 5321 5316 5312 5308 5305 5301 5295 5289 5286 5283 5282 5282 5282 5282 5282 5282 5281 5281 5282 5282 5283 5283 5284 5285 5286 5287 5288 5289 5289 5289 5290 5291 5291 5292 5293 5294 5295 5297 5298 5299 5300 5300 5301 5302 5303 5305 5306
5512 5509 5506 5502 5499 5495 5492 5488 5484 5480 5476 5472 5468 5463 5459 5455 5450 5445 5441 5436 5430 5425 5420 5415 5410 5404 5399 5391 5381 5374 5371 5366 5357 5347 5337 5327 5320 5314 5308 5303 5300 5295 5292 5289 5285 5280 5277 5275 5273 5272 5272 5271 5272 5271 5271 5271 5271 5272 5273 5274 5274 5276 5277 5278 5279 5280 5281 5281 5282 5283 5284 5285 5286 5288 5289 5290 5291 5292 5293 5294 5295 5296 5298 5299 5301
5501 5498 5495 5492 5489 5485 5482 5478 5474 5470 5466 5462 5458 5454 5449 5445 5440 5436 5431 5426 5420 5414 5408 5402 5395 5388 5382 5377 5369 5361 5356 5350 5343 5336 5328 5318 5310 5304 5299 5294 5290 5286 5283 5280 5276 5272 5269 5267 5266 5264 5263 5263 5263 5262 5262 5262 5262 5263 5264 5265 5266 5267 5268 5270 5271 5272 5272 5273 5275 5276 5277 5278 5280 5282 5283 5284 5285 5286 5287 5288 5290 5291 5293 5295 5297
5492 5488 5485 5482 5479 5475 5472 5468 5464 5460 5457 5452 5448 5444 5440 5436 5431 5426 5421 5416 5411 5404 5397 5391 5384 5376 5367 5361 5354 5347 5342 5336 5329 5323 5318 5311 5303 5296 5291 5286 5282 5279 5275 5272 5269 5265 5262 5261 5259 5257 5256 5256 5255 5254 5254 5254 5254 5255 5256 5257 5258 5259 5260 5261 5263 5263 5264 5266 5268 5269 5271 5272 5274 5276 5277 5278 5279 5280 5281 5283 5285 5287 5289 5291 5293
5482 5479 5475 5472 5469 5466 5462 5459 5455 5451 5447 5443 5439 5435 5430 5426 5421 5417 5412 5406 5401 5395 5388 5380 5373 5365 5356 5347 5339 5332 5328 5324 5318 5312 5307 5302 5296 5289 5283 5278 5274 5271 5268 5265 5262 5259 5256 5254 5253 5251 5249 5249 5248 5247 5247 5247 5247 5247 5248 5249 5250 5251 5252 5254 5255 5256 5258 5259 5261 5263 5265 5267 5268 5270 5271 5272 5273 5275 5277 5278 5281 5283 5285 5287 5289
5473 5470 5467 5464 5460 5457 5454 5450 5446 5443 5439 5434 5430 5426 5421 5417 5412 5407 5402 5396 5390 5384 5378 5370 5362 5353 5345 5336 5328 5321 5315 5311 5307 5302 5297 5292 5288 5283 5277 5272 5267 5263 5260 5258 5255 5253 5251 5249 5247 5245 5244 5242 5242 5241 5241 5240 5240 5241 5241 5242 5243 5244 5245 5247 5248 5250 5251 5253 5255 5257 5260 5261 5263 5264 5266 5267 5269 5271 5273 5275 5277 5279 5281 5284 5286
5464 5461 5458 5455 5452 5449 5446 5442 5438 5435 5430 5426 5421 5417 5412 5408 5403 5398 5392 5386 5380 5374 5368 5360 5352 5343 5335 5327 5320 5314 5308 5302 5297 5292 5288 5283 5279 5275 5271 5266 5262 5258 5254 5251 5248 5246 5245 5243 5241 5239 5238 5237 5236 5236 5235 5235 5235 5235 5235 5236 5237 5238 5239 5241 5242 5244 5246 5248 5250 5253 5255 5256 5258 5259 5261 5263 5266 5268 5270 5272 5274 5276 5278 5280 5282
5455 5453 5450 5447 5444 5441 5438 5434 5431 5427 5422 5418 5413 5408 5403 5399 5394 5388 5383 5377 5370 5364 5357 5350 5342 5334 5327 5320 5314 5308 5302 5296 5290 5284 5280 5275 5271 5268 5264 5261 5257 5253 5249 5245 5242 5240 5239 5237 5236 5234 5233 5232 5231 5230 5230 5230 5230 5230 5230 5231 5232 5233 5234 5236 5237 5239 5241 5244 5246 5248 5250 5252 5254 5256 5258 5260 5263 5265 5267 5269 5271 5273 5275 5277 5278
5447 5444 5442 5439 5436 5433 5429 5426 5422 5418 5414 5410 5405 5400 5395 5390 5385 5379 5374 5368 5361 5354 5346 5339 5332 5326 5319 5313 5308 5302 5297 5290 5284 5278 5273 5269 5265 5262 5259 5255 5252 5249 5245 5241 5238 5236 5234 5232 5231 5230 5229 5228 5227 5226 5226 5226 5226 5226 5226 5227 5228 5229 5230 5231 5233 5235 5238 5240 5243 5245 5247 5249 5252 5253 5255 5257 5259 5261 5263 5265 5268 5270 5272 5273 5275
5439 5436 5434 5431 5428 5424 5421 5418 5414 5410 5406 5402 5397 5392 5387 5381 5376 5371 5365 5358 5352 5345 5337 5329 5323 5317 5312 5307 5301 5297 5291 5285 5279 5273 5269 5264 5261 5257 5254 5251 5248 5245 5242 5238 5235 5232 5230 5229 5227 5226 5225 5224 5224 5223 5223 5222 5222 5223 5223 5224 5225 5226 5227 5229 5231 5233 5235 5238 5240 5242 5245 5247 5249 5251 5253 5254 5256 5258 5260 5262 5265 5267 5268 5270 5271
5430 5428 5425 5423 5420 5416 5413 5410 5406 5402 5398 5393 5389 5384 5378 5373 5368 5362 5356 5349 5342 5335 5328 5322 5316 5311 5306 5301 5296 5291 5286 5281 5275 5270 5266 5261 5257 5254 5251 5247 5244 5241 5238 5235 5232 5230 5228 5226 5225 5224 5223 5222 5221 5220 5220 5220 5220 5220 5221 5222 5223 5224 5226 5228 5230 5232 5234 5236 5238 5241 5243 5244 5246 5248 5250 5252 5253 5255 5258 5260 5262 5263 5265 5266 5267
5422 5420 5417 5414 5411 5408 5405 5401 5398 5394 5389 5385 5380 5375 5370 5365 5359 5353 5347 5340 5333 5326 5320 5315 5310 5306 5301 5296 5291 5286 5282 5277 5272 5268 5263 5259 5255 5251 5248 5245 5242 5239 5236 5233 5230 5228 5226 5225 5223 5222 5221 5220 5219 5218 5218 5218 5218 5219 5220 5221 5222 5224 5226 5227 5229 5231 5233 5235 5237 5239 5241 5242 5244 5246 5247 5249 5251 5253 5255 5257 5258 5260 5261 5262 5263
5414 5411 5408 5406 5403 5400 5396 5393 5389 5385 5381 5377 5372 5367 5362 5356 5350 5344 5338 5331 5324 5318 5313 5309 5304 5301 5296 5292 5287 5282 5278 5273 5269 5265 5261 5257 5253 5250 5246 5243 5240 5237 5235 5232 5229 5227 5225 5223 5222 5221 5219 5218 5218 5217 5217 5217 5218 5219 5220 5221 5223 5224 5226 5227 5229 5231 5233 5235 5237 5238 5240 5241 5243 5245 5246 5248 5249 5251 5252 5254 5255 5256 5257 5258 5258
5405 5403 5400 5397 5394 5391 5388 5384 5380 5376 5372 5368 5364 5359 5354 5348 5342 5336 5329 5323 5317 5312 5307 5303 5300 5296 5292 5288 5283 5279 5275 5270 5266 5262 5258 5255 5252 5248 5246 5242 5239 5236 5234 5231 5228 5226 5224 5222 5221 5220 5219 5218 5218 5217 5218 5218 5219 5220 5221 5222 5224 5225 5226 5228 5229 5231 5233 5234 5236 5238 5239 5241 5242 5243 5245 5246 5247 5248 5249 5250 5251 5252 5253 5253 5254
5397 5394 5391 5388 5386 5382 5379 5375 5371 5367 5363 5359 5355 5350 5345 5339 5333 5327 5320 5315 5310 5306 5302 5298 5295 5291 5288 5284 5280 5276 5272 5268 5264 5261 5257 5254 5251 5248 5245 5242 5239 5236 5233 5230 5228 5226 5224 5222 5221 5220 5220 5219 5219 5218 5219 5219 5220 5221 5222 5223 5224 5225 5226 5228 5229 5231 5232 5234 5235 5237 5238 5239 5240 5242 5243 5244 5244 5245 5246 5247 5248 5248 5249 5249 5250
5388 5386 5383 5380 5377 5374 5371 5367 5363 5359 5355 5351 5346 5341 5336 5331 5325 5318 5312 5308 5304 5301 5297 5294 5290 5287 5284 5280 5277 5273 5270 5266 5262 5259 5256 5253 5250 5247 5244 5241 5239 5237 5234 5231 5229 5227 5225 5224 5222 5221 5220 5220 5219 5219 5220 5220 5221 5222 5223 5224 5225 5226 5227 5228 5229 5230 5231 5233 5234 5235 5236 5237 5238 5239 5240 5241 5241 5242 5243 5243 5244 5244 5245 5245 5246